Погода в Чэндэ

Китай     40°59′02″N   117°55′46″E
темп.,
°C
ветер,
м/с
пор.,
м/с
влажн.,
%
обл.,
%
осадки,
мм/ч
давл.,
гПа
погр.,
м
17 апреля, сб
сб1723:00+4зсз48235 0.0 1017166
02:00+3зсз49235 0.0 1017212
05:00+2зсз482592 0.0 1018205
08:00+7сз815214 0.0 10192001
11:00+12ссз711145 0.0 10182920
14:00+14ссз69135 0.0 10163216
17:00+14ссз46124 0.0 10163195
20:00+9сз22160 0.0 101910
18 апреля, вс
вс1823:00+7зсз22190 0.0 102011
02:00+5ссз11230 0.0 102110
05:00+3ссз11260 0.0 102110
08:00+9сз11200 0.0 1020262
11:00+16з24130 0.0 1016956
14:00+21з57100 0.0 10121992
17:00+21юз56100 0.0 10102016
20:00+14ююз22170 0.0 101112
19 апреля, пн
пн1923:00+11зюз00210 0.0 101210
02:00+9с002462 0.0 101210
05:00+8с222698 0.0 101310
08:00+14ссз222164 0.0 1013252
11:00+22зсз231350 0.0 1012902
14:00+25зсз2275 0.0 10093155
17:00+25ююз1277 0.0 10093290
20:00+18в410211 0.0 1012205
20 апреля, вт
вт2023:00+16всв37244 0.0 1014159
02:00+14в47285 0.0 1015175
05:00+11в363243 0.0 1017152
08:00+14вюв342616 0.0 1018504
11:00+20ююв3525100 0.0 10171304
14:00+25ю772275 0.0 10132354
17:00+23ю672416 0.0 10141507
20:00+18ю4933100 0.0 1016245
21 апреля, ср
ср2123:00+14юв2240100 0.0 101819
02:00+13юв1143100 0.0 101812
05:00+12вюв1146100 0.0 101711
08:00+15ююв2436100 0.0 1018371
11:00+17ю4828100 0.0 10171465
14:00+16ююв5728100 0.0 10161412
17:00+16ююз51222100 0.0 10142322
20:00+13ю61035100 0.0 10151148